OpenBCM V1.08-5-g2f4a (Linux)

Packet Radio Mailbox

IZ3LSV

[San Dona' di P. JN]

 Login: GUEST





  
CX2SA  > KEP      07.03.20 01:56l 86 Lines 3608 Bytes #999 (0) @ ARL
BID : ARLK019
Read: GUEST
Subj: ARLK019 Keplerian data
Path: IZ3LSV<IQ2LB<IK1NHL<CX2SA
Sent: 200306/2335Z @:CX2SA.SAL.URY.SOAM #:26313 [Salto] FBB7.00e $:ARLK019
From: CX2SA@CX2SA.SAL.URY.SOAM
To  : KEP@ARL


ZCZC SK19
QST de W1AW
Keplerian Bulletin 19  ARLK019
From ARRL Headquarters
Newington, CT  March 6, 2020
To all radio amateurs

SB KEP ARL ARLK019
ARLK019 Keplerian data

Special thanks to AMSAT-NA (AMSAT.ORG) for the following Keplerian
data.

Decode 2-line elsets with the following key:
1 AAAAAU 00  0  0 BBBBB.BBBBBBBB  .CCCCCCCC  00000-0  00000-0 0  DDDZ
2 AAAAA EEE.EEEE FFF.FFFF GGGGGGG HHH.HHHH III.IIII JJ.JJJJJJJJKKKKKZ
KEY: A-CATALOGNUM B-EPOCHTIME C-DECAY D-ELSETNUM E-INCLINATION F-RAAN
G-ECCENTRICITY H-ARGPERIGEE I-MNANOM J-MNMOTION K-ORBITNUM Z-CHECKSUM

0 AO-07
1 7530U 74089B   20066.84726306 -.00000041  00000-0  23543-4 0  9990
2 7530 101.7872  37.2136 0012015 200.4612 189.0451 12.53642416 73371
0 FO-29
1 24278U 96046B   20066.31129825 -.00000042 +00000-0 -37123-5 0  9992
2 24278 098.5689 189.7200 0349265 282.0214 074.1990 13.53096218162934
0 ISS
1 25544U 98067A   20066.90059028  .00001314  00000-0  31803-4 0  9995
2 25544  51.6430 134.5733 0005521 354.6734 342.3017 15.49224672216159
0 SO-50
1 27607U 02058C   20066.21993166 -.00000029 +00000-0 +16630-4 0  9990
2 27607 064.5566 329.9984 0060707 203.3354 156.4992 14.75613428925496
0 CO-55
1 27844U 03031E   20066.43739819  .00000059  00000-0  46371-4 0  9999
2 27844  98.6845  75.7151 0009744   0.4526 359.6659 14.22224432865495
0 RS-22
1 27939U 03042A   20066.86071724  .00000027  00000-0  13569-4 0  9995
2 27939  98.0711 203.1466 0011770 323.2297  36.8099 14.66840308878978
0 RS-30
1 32953U 08025A   20066.53880949 +.00000037 +00000-0 +19437-3 0  9994
2 32953 082.5090 341.9203 0018228 280.6324 079.2702 12.43094652534843
0 KKS-1
1 33499U 09002H   20066.37466031  .00000081  00000-0  19860-4 0  9990
2 33499  98.3294 278.1511 0010398  93.0256 267.2142 14.75509188597818
0 AO-71
1 37854U 11061E   20066.06825318 +.00001198 +00000-0 +68031-4 0  9994
2 37854 101.7102 103.9750 0158970 009.2809 351.1281 15.07043078455903
0 AO-73
1 39444U 13066AE  20066.47261013 +.00000211 +00000-0 +32315-4 0  9990
2 39444 097.5592 072.4042 0056566 247.7374 111.7835 14.82073701338119
0 UKUBE 1
1 40074U 14037F   20066.49105008 +.00000284 +00000-0 +41145-4 0  9994
2 40074 098.4508 248.6967 0005419 090.8386 269.3450 14.84205634306483
0 XW-2A
1 40903U 15049E   20066.71589738  .00001706  00000-0  41015-4 0  9996
2 40903  97.3030 115.5348 0011233 275.9822 204.9576 15.42704687250635
0 XW-2F
1 40910U 15049M   20066.59154292 +.00001012 +00000-0 +53382-4 0  9993
2 40910 097.4679 071.5821 0014762 006.3515 111.3121 15.17745869246737
0 XW-2B
1 40911U 15049N   20066.60444874 +.00000806 +00000-0 +45245-4 0  9993
2 40911 097.4764 069.8669 0014522 016.3476 109.0025 15.16099221246587
0 IO-86
1 40931U 15052B   20064.72643270  .00000562  00000-0 -10961-4 0  9998
2 40931   6.0023   2.2923 0013420 237.8306 122.0531 14.76626752239753
0 CAS-4B
1 42759U 17034B   20066.47137804  .00000051  00000-0  16604-4 0  9997
2 42759  43.0162 232.8431 0009794 101.7914 308.8368 15.09755569150408
0 CAS-4B
1 42761U 17034D   20066.48423589  .00000065  00000-0  17411-4 0  9991
2 42761  43.0171 232.1402 0010323 103.5727 290.9991 15.09833776150404
0 AO-91
1 43017U 17073E   20066.34365703  .00000719  00000-0  60982-4 0  9994
2 43017  97.7262 342.5428 0258094  26.5774 334.8405 14.78821754123928
0 AO-92
1 43137U 18004AC  20066.13882637  .00000903  00000-0  40319-4 0  9996
2 43137  97.4563 137.9603 0010627  64.0638 296.1693 15.23919448119302

Keplerian bulletins are transmitted twice weekly from W1AW.  The
next scheduled transmission of these data will be Tuesday, March 10,
2020, at 2330z on Baudot and BPSK31.
NNNN


Read previous mail | Read next mail


 14.10.2025 05:02:29lGo back Go up